Trieste, Italy

3:43 AM CEST on June 24, 2017 (GMT +0200)
Trieste

Weather History for LIVT - October, 2012

Change the Weather History Date:

Friday, October 12, 2012

  Actual Average Record
Temperature  
Mean Temperature 64 °F -  
Max Temperature 68 °F 61 °F 78 °F (2001)
Min Temperature 59 °F 51 °F 45 °F (2016)
Degree Days  
Heating Degree Days 2    
Growing Degree Days 14 (Base 50)    
Moisture  
Dew Point 52 °F    
Average Humidity 67    
Maximum Humidity 82    
Minimum Humidity 51    
Precipitation  
Precipitation 0.24 in 0.13 in - ()
Sea Level Pressure  
Sea Level Pressure 29.81 in    
Wind  
Wind Speed 5 mph ()    
Max Wind Speed 12 mph    
Max Gust Speed 25 mph    
Visibility 7.1 miles    
Events Rain    
Averages and records for this station are not official NWS values.
T = Trace of Precipitation, MM = Missing Value Source: Averaged Metar Reports

Daily Weather History Graph

Daily Weather History Graph

Search for Another Location

Airport or City:

Trip Planner

Search our weather history database for the weather conditions in past years. The results will help you decide how hot, cold, wet, or windy it might be!

Date:

Astronomy

Oct. 12, 2012 Rise Set
Actual Time 7:17 AM CEST 6:24 PM CEST
Civil Twilight 6:47 AM CEST 6:54 PM CEST
Nautical Twilight 6:13 AM CEST 7:28 PM CEST
Astronomical Twilight 5:39 AM CEST 8:02 PM CEST
Moon 3:32 AM CEST (10/12) 4:31 PM CEST (10/12)
Length of Visible Light 12h 06m
Length of Day
11h 06m
Waning Crescent, 12% of the Moon is Illuminated
Oct 12
Waning Crescent
Oct 15
New
Oct 22
First Quarter
Oct 29
Full
Nov 7
Last Quarter

Hourly Weather History & Observations

Time (CEST) Temp. Dew Point Humidity Pressure Visibility Wind Dir Wind Speed Gust Speed Precip Events Conditions
12:55 AM 60.8 °F 48.2 °F 63% 29.86 in 6.2 mi ENE 9.2 mph - N/A   Scattered Clouds
1:55 AM 60.8 °F 48.2 °F 63% 29.83 in 6.2 mi East 6.9 mph - N/A   Scattered Clouds
2:00 AM 61 °F 48 °F 53% 29.86 in 12 mi East 6.9 mph - -   Partly Cloudy
2:55 AM 60.8 °F 48.2 °F 63% 29.83 in 6.2 mi ENE 3.5 mph - N/A   Mostly Cloudy
3:55 AM 60.8 °F 50.0 °F 68% 29.83 in 6.2 mi Calm Calm - N/A Rain Light Rain
4:55 AM 59.0 °F 53.6 °F 82% 29.80 in 6.2 mi ENE 2.3 mph - N/A Rain Light Rain
5:55 AM 59.0 °F 51.8 °F 77% 29.80 in 6.2 mi Calm Calm - N/A   Mostly Cloudy
6:55 AM 59.0 °F 53.6 °F 82% 29.80 in 6.2 mi East 4.6 mph - N/A   Mostly Cloudy
7:55 AM 60.8 °F 53.6 °F 77% 29.80 in 6.2 mi East 3.5 mph - N/A   Mostly Cloudy
8:00 AM 61 °F 53 °F 68% 29.81 in 12 mi East 3.5 mph - -   Partly Cloudy
8:55 AM 62.6 °F 53.6 °F 72% 29.80 in 6.2 mi ENE 4.6 mph - N/A   Scattered Clouds
9:55 AM 64.4 °F 53.6 °F 68% 29.80 in 6.2 mi ENE 8.1 mph - N/A   Scattered Clouds
10:55 AM 66.2 °F 55.4 °F 68% 29.80 in 6.2 mi ENE 4.6 mph - N/A   Scattered Clouds
11:55 AM 66.2 °F 53.6 °F 64% 29.80 in 6.2 mi ENE 4.6 mph - N/A   Scattered Clouds
1:55 PM 68.0 °F 53.6 °F 60% 29.80 in 6.2 mi ENE 4.6 mph - N/A   Scattered Clouds
2:00 PM 68 °F 54 °F 51% 29.80 in 12 mi ENE 4.6 mph - -   Partly Cloudy
3:55 PM 68.0 °F 53.6 °F 60% 29.77 in 6.2 mi ENE 9.2 mph 20.7 mph N/A   Scattered Clouds
4:55 PM 68.0 °F 53.6 °F 60% 29.77 in 6.2 mi ENE 8.1 mph - N/A   Partly Cloudy
5:55 PM 64.4 °F 51.8 °F 64% 29.80 in 6.2 mi ENE 10.4 mph - N/A   Partly Cloudy
8:55 PM 60.8 °F 50.0 °F 68% 29.83 in - ENE 11.5 mph 25.3 mph N/A   Clear
10:55 PM 59.0 °F 53.6 °F 82% 29.86 in 6.2 mi East 6.9 mph 18.4 mph N/A Rain Rain